| time (UTC) | temp C | wind direction | speed KPH | gust KPH | rain 1hr cm | rain 24hr cm | rain mn cm | humidity % | barometer mb |
| 20260507052628 | 11 | 157 | 0.0 | 0.0 | 0.00 | 0.00 | 0.00 | 45 | 1007.6 |
| 20260507052128 | 10 | 112 | 0.0 | 0.0 | 0.00 | 0.00 | 0.00 | 46 | 1007.6 |
| 20260507051628 | 8 | 202 | 0.0 | 0.0 | 0.00 | 0.00 | 0.00 | 47 | 1007.5 |
| 20260507051128 | 8 | 135 | 0.0 | 1.6 | 0.00 | 0.00 | 0.00 | 48 | 1007.5 |
| 20260507050628 | 7 | 112 | 0.0 | 0.0 | 0.00 | 0.00 | 0.00 | 49 | 1007.6 |
| 20260507050128 | 7 | 135 | 0.0 | 0.0 | 0.00 | 0.00 | 0.00 | 50 | 1007.5 |
| 20260507045628 | 6 | 112 | 0.0 | 0.0 | 0.00 | 0.00 | 0.00 | 50 | 1007.5 |
| 20260507045128 | 6 | 157 | 0.0 | 0.0 | 0.00 | 0.00 | 0.00 | 51 | 1007.5 |
| 20260507044628 | 6 | 337 | 0.0 | 3.2 | 0.00 | 0.00 | 0.00 | 52 | 1007.5 |
| 20260507044129 | 5 | 157 | 0.0 | 0.0 | 0.00 | 0.00 | 0.00 | 53 | 1007.5 |
| 20260507043628 | 5 | 157 | 0.0 | 0.0 | 0.00 | 0.00 | 0.00 | 54 | 1007.5 |
| 20260507043129 | 5 | 135 | 0.0 | 0.0 | 0.00 | 0.00 | 0.00 | 55 | 1007.5 |
| 20260507042628 | 4 | 157 | 0.0 | 0.0 | 0.00 | 0.00 | 0.00 | 56 | 1007.6 |
| 20260507042129 | 3 | 157 | 0.0 | 0.0 | 0.00 | 0.00 | 0.00 | 56 | 1007.5 |
| 20260507041629 | 3 | 157 | 0.0 | 0.0 | 0.00 | 0.00 | 0.00 | 57 | 1007.5 |
| 20260507041129 | 2 | 157 | 0.0 | 0.0 | 0.00 | 0.00 | 0.00 | 58 | 1007.5 |
| 20260507040629 | 2 | 135 | 0.0 | 0.0 | 0.00 | 0.00 | 0.00 | 58 | 1007.5 |
| 20260507040129 | 2 | 135 | 0.0 | 0.0 | 0.00 | 0.00 | 0.00 | 58 | 1007.4 |
| 20260507035629 | 2 | 135 | 0.0 | 0.0 | 0.00 | 0.00 | 0.00 | 59 | 1007.4 |
| 20260507035129 | 2 | 135 | 0.0 | 0.0 | 0.00 | 0.00 | 0.00 | 60 | 1007.5 |
| 20260507034629 | 1 | 157 | 0.0 | 0.0 | 0.00 | 0.00 | 0.00 | 60 | 1007.6 |
| 20260507034129 | 1 | 157 | 0.0 | 0.0 | 0.00 | 0.00 | 0.00 | 61 | 1007.6 |
| 20260507033629 | 1 | 157 | 0.0 | 0.0 | 0.00 | 0.00 | 0.00 | 61 | 1007.5 |
| 20260507033129 | 1 | 157 | 0.0 | 0.0 | 0.00 | 0.00 | 0.00 | 61 | 1007.5 |
| 20260507032629 | 0 | 157 | 0.0 | 0.0 | 0.00 | 0.00 | 0.00 | 62 | 1007.5 |
| 20260507032129 | 0 | 157 | 0.0 | 0.0 | 0.00 | 0.00 | 0.00 | 62 | 1007.5 |
| 20260507031629 | 0 | 157 | 0.0 | 0.0 | 0.00 | 0.00 | 0.00 | 62 | 1007.5 |
| 20260507031129 | 0 | 157 | 0.0 | 0.0 | 0.00 | 0.00 | 0.00 | 62 | 1007.4 |
| 20260507030629 | 0 | 157 | 0.0 | 0.0 | 0.00 | 0.00 | 0.00 | 62 | 1007.4 |
| 20260507030129 | 0 | 157 | 0.0 | 0.0 | 0.00 | 0.00 | 0.00 | 62 | 1007.3 |
| 20260507025629 | 0 | 157 | 0.0 | 0.0 | 0.00 | 0.00 | 0.00 | 62 | 1007.3 |
| 20260507025129 | 0 | 157 | 0.0 | 0.0 | 0.00 | 0.00 | 0.00 | 62 | 1007.2 |
| 20260507024629 | 0 | 157 | 0.0 | 0.0 | 0.00 | 0.00 | 0.00 | 62 | 1007.3 |
| 20260507024129 | 0 | 157 | 0.0 | 0.0 | 0.00 | 0.00 | 0.00 | 62 | 1007.3 |
| 20260507023629 | 0 | 157 | 0.0 | 0.0 | 0.00 | 0.00 | 0.00 | 62 | 1007.4 |
| 20260507023129 | 0 | 157 | 0.0 | 0.0 | 0.00 | 0.00 | 0.00 | 61 | 1007.3 |
| 20260507022629 | 0 | 157 | 0.0 | 0.0 | 0.00 | 0.00 | 0.00 | 61 | 1007.4 |
| 20260507022129 | 0 | 157 | 0.0 | 0.0 | 0.00 | 0.00 | 0.00 | 61 | 1007.3 |
| 20260507021629 | 0 | 157 | 0.0 | 0.0 | 0.00 | 0.00 | 0.00 | 61 | 1007.4 |
| 20260507021129 | 0 | 157 | 0.0 | 0.0 | 0.00 | 0.00 | 0.00 | 61 | 1007.3 |
| 20260507020629 | 0 | 157 | 0.0 | 0.0 | 0.00 | 0.00 | 0.00 | 60 | 1007.4 |
| 20260507020129 | 0 | 157 | 0.0 | 0.0 | 0.00 | 0.00 | 0.00 | 60 | 1007.3 |
| 20260507015629 | 0 | 157 | 0.0 | 0.0 | 0.00 | 0.00 | 0.00 | 60 | 1007.3 |
| 20260507015129 | 0 | 157 | 0.0 | 0.0 | 0.00 | 0.00 | 0.00 | 60 | 1007.2 |
| 20260507014629 | 0 | 157 | 0.0 | 0.0 | 0.00 | 0.00 | 0.00 | 59 | 1007.2 |
| 20260507014129 | 0 | 157 | 0.0 | 0.0 | 0.00 | 0.00 | 0.00 | 59 | 1007.2 |
| 20260507013629 | 0 | 157 | 0.0 | 0.0 | 0.00 | 0.00 | 0.00 | 59 | 1007.2 |
| 20260507013129 | 0 | 157 | 0.0 | 0.0 | 0.00 | 0.00 | 0.00 | 58 | 1007.3 |
| 20260507012629 | 0 | 157 | 0.0 | 0.0 | 0.00 | 0.00 | 0.00 | 58 | 1007.2 |
| 20260507012129 | 0 | 157 | 0.0 | 0.0 | 0.00 | 0.00 | 0.00 | 58 | 1007.2 |
| 20260507011629 | 0 | 157 | 0.0 | 0.0 | 0.00 | 0.00 | 0.00 | 58 | 1007.2 |
| 20260507011129 | 0 | 67 | 0.0 | 0.0 | 0.00 | 0.00 | 0.00 | 58 | 1007.2 |
| 20260507010629 | 0 | 157 | 0.0 | 0.0 | 0.00 | 0.00 | 0.00 | 57 | 1007.2 |
| 20260507010129 | 0 | 157 | 0.0 | 0.0 | 0.00 | 0.00 | 0.00 | 57 | 1007.1 |
| 20260507005629 | 0 | 157 | 0.0 | 0.0 | 0.00 | 0.00 | 0.00 | 57 | 1007.2 |
| 20260507005129 | 0 | 157 | 0.0 | 0.0 | 0.00 | 0.00 | 0.00 | 57 | 1007.2 |
| 20260507004629 | 0 | 157 | 0.0 | 0.0 | 0.00 | 0.00 | 0.00 | 57 | 1007.1 |
| 20260507004129 | 1 | 157 | 0.0 | 0.0 | 0.00 | 0.00 | 0.00 | 57 | 1007.2 |
| 20260507003629 | 1 | 157 | 0.0 | 0.0 | 0.00 | 0.00 | 0.00 | 57 | 1007.2 |
| 20260507003129 | 1 | 157 | 0.0 | 0.0 | 0.00 | 0.00 | 0.00 | 57 | 1007.2 |
| 20260507002629 | 1 | 157 | 0.0 | 0.0 | 0.00 | 0.00 | 0.00 | 57 | 1007.2 |
| 20260507002129 | 1 | 135 | 0.0 | 0.0 | 0.00 | 0.00 | 0.00 | 57 | 1007.1 |
| 20260507001629 | 1 | 135 | 0.0 | 0.0 | 0.00 | 0.00 | 0.00 | 58 | 1007.2 |
| 20260507001129 | 1 | 135 | 0.0 | 0.0 | 0.00 | 0.00 | 0.00 | 58 | 1006.9 |
| 20260507000629 | 1 | 135 | 0.0 | 0.0 | 0.00 | 0.00 | 0.00 | 58 | 1007.1 |
| 20260507000129 | 1 | 135 | 0.0 | 0.0 | 0.00 | 0.00 | 0.00 | 58 | 1007.2 |
| 20260506235629 | 1 | 135 | 0.0 | 0.0 | 0.00 | 0.00 | 0.00 | 58 | 1007.2 |
| 20260506235129 | 1 | 135 | 0.0 | 0.0 | 0.00 | 0.00 | 0.00 | 58 | 1007.1 |
| 20260506234629 | 1 | 135 | 0.0 | 0.0 | 0.00 | 0.00 | 0.00 | 58 | 1007.0 |
| 20260506234129 | 1 | 135 | 0.0 | 0.0 | 0.00 | 0.00 | 0.00 | 59 | 1007.1 |
| 20260506233629 | 1 | 292 | 0.0 | 0.0 | 0.00 | 0.00 | 0.00 | 59 | 1007.0 |
| 20260506233129 | 1 | 315 | 0.0 | 0.0 | 0.00 | 0.00 | 0.00 | 59 | 1006.9 |
| 20260506232629 | 1 | 315 | 0.0 | 0.0 | 0.00 | 0.00 | 0.00 | 59 | 1006.9 |
| 20260506232129 | 1 | 315 | 0.0 | 0.0 | 0.00 | 0.00 | 0.00 | 60 | 1006.9 |
| 20260506231629 | 1 | 315 | 0.0 | 0.0 | 0.00 | 0.00 | 0.00 | 60 | 1006.9 |
| 20260506231129 | 1 | 315 | 0.0 | 0.0 | 0.00 | 0.00 | 0.00 | 60 | 1006.9 |
| 20260506230629 | 1 | 315 | 0.0 | 0.0 | 0.00 | 0.00 | 0.00 | 60 | 1007.0 |
| 20260506230129 | 1 | 315 | 0.0 | 0.0 | 0.00 | 0.00 | 0.00 | 61 | 1006.9 |
| 20260506225629 | 1 | 315 | 0.0 | 0.0 | 0.00 | 0.00 | 0.00 | 61 | 1006.9 |
| 20260506225129 | 1 | 315 | 0.0 | 0.0 | 0.00 | 0.00 | 0.00 | 61 | 1007.0 |
| 20260506224629 | 1 | 315 | 0.0 | 0.0 | 0.00 | 0.00 | 0.00 | 62 | 1006.9 |
| 20260506224130 | 1 | 315 | 0.0 | 0.0 | 0.00 | 0.00 | 0.00 | 63 | 1006.9 |
| 20260506223630 | 1 | 315 | 0.0 | 0.0 | 0.00 | 0.00 | 0.00 | 64 | 1006.8 |
| 20260506223129 | 1 | 315 | 0.0 | 0.0 | 0.00 | 0.00 | 0.00 | 64 | 1006.9 |
| 20260506222630 | 1 | 315 | 0.0 | 0.0 | 0.00 | 0.00 | 0.00 | 65 | 1006.8 |
| 20260506222130 | 1 | 315 | 0.0 | 0.0 | 0.00 | 0.00 | 0.00 | 66 | 1006.8 |
| 20260506221630 | 1 | 315 | 0.0 | 0.0 | 0.00 | 0.00 | 0.00 | 67 | 1006.8 |
| 20260506221130 | 1 | 315 | 0.0 | 0.0 | 0.00 | 0.00 | 0.00 | 68 | 1006.8 |
| 20260506220630 | 1 | 315 | 0.0 | 0.0 | 0.00 | 0.00 | 0.00 | 69 | 1006.8 |
| 20260506220130 | 1 | 315 | 0.0 | 0.0 | 0.00 | 0.00 | 0.00 | 69 | 1006.8 |
| 20260506215630 | 1 | 315 | 0.0 | 0.0 | 0.00 | 0.00 | 0.00 | 69 | 1006.6 |
| 20260506215130 | 1 | 315 | 0.0 | 0.0 | 0.00 | 0.00 | 0.00 | 69 | 1006.6 |
| 20260506214630 | 0 | 315 | 0.0 | 0.0 | 0.00 | 0.00 | 0.00 | 69 | 1006.5 |
| 20260506214130 | 0 | 315 | 0.0 | 0.0 | 0.00 | 0.00 | 0.00 | 69 | 1006.5 |
| 20260506213630 | 1 | 315 | 0.0 | 0.0 | 0.00 | 0.00 | 0.00 | 68 | 1006.6 |
| 20260506213130 | 1 | 315 | 0.0 | 0.0 | 0.00 | 0.00 | 0.00 | 68 | 1006.4 |
| 20260506212630 | 1 | 315 | 0.0 | 0.0 | 0.00 | 0.00 | 0.00 | 68 | 1006.4 |
| 20260506212130 | 1 | 315 | 0.0 | 0.0 | 0.00 | 0.00 | 0.00 | 67 | 1006.6 |
| 20260506211630 | 1 | 315 | 0.0 | 0.0 | 0.00 | 0.00 | 0.00 | 66 | 1006.5 |
| 20260506211130 | 1 | 315 | 0.0 | 0.0 | 0.00 | 0.00 | 0.00 | 66 | 1006.4 |
| 20260506210630 | 1 | 315 | 0.0 | 0.0 | 0.00 | 0.00 | 0.00 | 66 | 1006.4 |
| 20260506210130 | 1 | 315 | 0.0 | 0.0 | 0.00 | 0.00 | 0.00 | 66 | 1006.4 |
| 20260506205630 | 1 | 315 | 0.0 | 0.0 | 0.00 | 0.00 | 0.00 | 64 | 1006.3 |
| 20260506205131 | 1 | 315 | 0.0 | 0.0 | 0.00 | 0.00 | 0.00 | 64 | 1006.3 |
| 20260506204630 | 1 | 315 | 0.0 | 0.0 | 0.00 | 0.00 | 0.00 | 64 | 1006.4 |
| 20260506204130 | 1 | 315 | 0.0 | 0.0 | 0.00 | 0.00 | 0.00 | 64 | 1006.3 |
| 20260506203630 | 1 | 315 | 0.0 | 0.0 | 0.00 | 0.00 | 0.00 | 63 | 1006.3 |
| 20260506203130 | 1 | 315 | 0.0 | 0.0 | 0.00 | 0.00 | 0.00 | 62 | 1006.3 |
| 20260506202630 | 1 | 315 | 0.0 | 0.0 | 0.00 | 0.00 | 0.00 | 61 | 1006.4 |
| 20260506202130 | 2 | 315 | 0.0 | 0.0 | 0.00 | 0.00 | 0.00 | 61 | 1006.3 |
| 20260506201630 | 2 | 315 | 0.0 | 0.0 | 0.00 | 0.00 | 0.00 | 60 | 1006.3 |
| 20260506201130 | 2 | 315 | 0.0 | 0.0 | 0.00 | 0.00 | 0.00 | 59 | 1006.3 |
| 20260506200630 | 2 | 315 | 0.0 | 0.0 | 0.00 | 0.00 | 0.00 | 59 | 1006.3 |
| 20260506200130 | 2 | 315 | 0.0 | 0.0 | 0.00 | 0.00 | 0.00 | 58 | 1006.4 |
| 20260506195630 | 2 | 315 | 0.0 | 0.0 | 0.00 | 0.00 | 0.00 | 57 | 1006.3 |
| 20260506195130 | 3 | 315 | 0.0 | 0.0 | 0.00 | 0.00 | 0.00 | 57 | 1006.3 |
| 20260506194630 | 3 | 315 | 0.0 | 0.0 | 0.00 | 0.00 | 0.00 | 56 | 1006.3 |
| 20260506194130 | 3 | 315 | 0.0 | 0.0 | 0.00 | 0.00 | 0.00 | 55 | 1006.2 |
| 20260506193630 | 3 | 315 | 0.0 | 0.0 | 0.00 | 0.00 | 0.00 | 55 | 1006.1 |
| 20260506193130 | 4 | 315 | 0.0 | 0.0 | 0.00 | 0.00 | 0.00 | 54 | 1006.1 |
| 20260506192630 | 4 | 315 | 0.0 | 0.0 | 0.00 | 0.00 | 0.00 | 54 | 1006.2 |
| 20260506192130 | 5 | 315 | 0.0 | 0.0 | 0.00 | 0.00 | 0.00 | 54 | 1006.1 |
| 20260506191630 | 5 | 315 | 0.0 | 0.0 | 0.00 | 0.00 | 0.00 | 53 | 1006.0 |
| 20260506191130 | 5 | 315 | 0.0 | 0.0 | 0.00 | 0.00 | 0.00 | 53 | 1006.1 |
| 20260506190630 | 5 | 315 | 0.0 | 0.0 | 0.00 | 0.00 | 0.00 | 52 | 1006.0 |
| 20260506190130 | 5 | 315 | 0.0 | 0.0 | 0.00 | 0.00 | 0.00 | 52 | 1006.0 |
| 20260506185630 | 5 | 315 | 0.0 | 0.0 | 0.00 | 0.00 | 0.00 | 52 | 1006.0 |
| 20260506185130 | 6 | 315 | 0.0 | 0.0 | 0.00 | 0.00 | 0.00 | 51 | 1005.9 |
| 20260506184630 | 6 | 315 | 0.0 | 0.0 | 0.00 | 0.00 | 0.00 | 50 | 1005.9 |
| 20260506184130 | 6 | 315 | 0.0 | 0.0 | 0.00 | 0.00 | 0.00 | 49 | 1006.0 |
| 20260506183630 | 6 | 315 | 0.0 | 0.0 | 0.00 | 0.00 | 0.00 | 49 | 1005.9 |
| 20260506183130 | 7 | 315 | 0.0 | 0.0 | 0.00 | 0.00 | 0.00 | 48 | 1006.0 |
| 20260506182630 | 7 | 315 | 0.0 | 0.0 | 0.00 | 0.00 | 0.00 | 48 | 1005.9 |
| 20260506182130 | 7 | 315 | 0.0 | 0.0 | 0.00 | 0.00 | 0.00 | 47 | 1005.9 |
| 20260506181630 | 7 | 315 | 0.0 | 0.0 | 0.00 | 0.00 | 0.00 | 47 | 1006.0 |
| 20260506181130 | 7 | 315 | 0.0 | 0.0 | 0.00 | 0.00 | 0.00 | 47 | 1006.0 |
| 20260506180630 | 7 | 315 | 0.0 | 0.0 | 0.00 | 0.00 | 0.00 | 46 | 1006.0 |
| 20260506180130 | 8 | 315 | 0.0 | 0.0 | 0.00 | 0.00 | 0.00 | 46 | 1005.9 |
| 20260506175630 | 8 | 315 | 0.0 | 0.0 | 0.00 | 0.00 | 0.00 | 45 | 1005.9 |
| 20260506175130 | 8 | 315 | 0.0 | 0.0 | 0.00 | 0.00 | 0.00 | 44 | 1005.9 |
| 20260506174630 | 8 | 315 | 0.0 | 0.0 | 0.00 | 0.00 | 0.00 | 44 | 1005.9 |
| 20260506174130 | 9 | 315 | 0.0 | 0.0 | 0.00 | 0.00 | 0.00 | 44 | 1005.8 |
| 20260506173630 | 10 | 315 | 0.0 | 0.0 | 0.00 | 0.00 | 0.00 | 43 | 1005.8 |
| 20260506173130 | 10 | 315 | 0.0 | 0.0 | 0.00 | 0.00 | 0.00 | 43 | 1005.8 |
| 20260506172630 | 10 | 315 | 0.0 | 0.0 | 0.00 | 0.00 | 0.00 | 43 | 1005.8 |
| 20260506172130 | 10 | 315 | 0.0 | 0.0 | 0.00 | 0.00 | 0.00 | 42 | 1005.7 |
| 20260506171630 | 10 | 292 | 0.0 | 0.0 | 0.00 | 0.00 | 0.00 | 42 | 1005.7 |
| 20260506171130 | 10 | 292 | 0.0 | 0.0 | 0.00 | 0.00 | 0.00 | 41 | 1005.8 |
| 20260506170630 | 11 | 292 | 0.0 | 0.0 | 0.00 | 0.00 | 0.00 | 40 | 1005.9 |
| 20260506170130 | 11 | 270 | 0.0 | 0.0 | 0.00 | 0.00 | 0.00 | 39 | 1005.9 |
| 20260506165630 | 11 | 315 | 0.0 | 0.0 | 0.00 | 0.00 | 0.00 | 38 | 1005.9 |
| 20260506165131 | 12 | 315 | 0.0 | 0.0 | 0.00 | 0.00 | 0.00 | 38 | 1005.9 |
| 20260506164631 | 12 | 315 | 0.0 | 0.0 | 0.00 | 0.00 | 0.00 | 37 | 1005.8 |
| 20260506164131 | 12 | 292 | 0.0 | 0.0 | 0.00 | 0.00 | 0.00 | 37 | 1005.8 |
| 20260506163631 | 11 | 292 | 0.0 | 0.0 | 0.00 | 0.00 | 0.00 | 37 | 1005.8 |
| 20260506163131 | 11 | 292 | 0.0 | 0.0 | 0.00 | 0.00 | 0.00 | 35 | 1005.7 |
| 20260506162631 | 12 | 270 | 0.0 | 0.0 | 0.00 | 0.00 | 0.00 | 34 | 1005.8 |
| 20260506162131 | 13 | 292 | 0.0 | 0.0 | 0.00 | 0.00 | 0.00 | 33 | 1005.8 |
| 20260506161631 | 14 | 270 | 0.0 | 0.0 | 0.00 | 0.00 | 0.00 | 32 | 1005.7 |
| 20260506161131 | 15 | 270 | 0.0 | 0.0 | 0.00 | 0.00 | 0.00 | 31 | 1005.6 |
| 20260506160631 | 17 | 315 | 0.0 | 0.0 | 0.00 | 0.00 | 0.00 | 29 | 1005.7 |
| 20260506160131 | 18 | 202 | 0.0 | 0.0 | 0.00 | 0.00 | 0.00 | 30 | 1005.7 |
| 20260506155631 | 18 | 247 | 0.0 | 0.0 | 0.00 | 0.00 | 0.00 | 31 | 1005.6 |
| 20260506155131 | 17 | 247 | 0.0 | 0.0 | 0.00 | 0.00 | 0.00 | 32 | 1005.7 |
| 20260506154631 | 16 | 315 | 0.0 | 0.0 | 0.00 | 0.00 | 0.00 | 33 | 1005.7 |
| 20260506154131 | 15 | 315 | 0.0 | 0.0 | 0.00 | 0.00 | 0.00 | 35 | 1005.7 |
| 20260506153631 | 15 | 315 | 0.0 | 0.0 | 0.00 | 0.00 | 0.00 | 35 | 1005.6 |
| 20260506153131 | 13 | 337 | 0.0 | 0.0 | 0.00 | 0.00 | 0.00 | 36 | 1005.6 |
| 20260506152631 | 13 | 292 | 0.0 | 0.0 | 0.00 | 0.00 | 0.00 | 37 | 1005.6 |
| 20260506152131 | 12 | 292 | 0.0 | 0.0 | 0.00 | 0.00 | 0.00 | 37 | 1005.7 |
| 20260506151631 | 12 | 292 | 0.0 | 0.0 | 0.00 | 0.00 | 0.00 | 37 | 1005.7 |
| 20260506151131 | 13 | 337 | 0.0 | 0.0 | 0.00 | 0.00 | 0.00 | 36 | 1005.7 |
| 20260506150631 | 13 | 292 | 0.0 | 0.0 | 0.00 | 0.00 | 0.00 | 36 | 1005.6 |
| 20260506150131 | 14 | 45 | 0.0 | 0.0 | 0.00 | 0.00 | 0.00 | 35 | 1005.7 |
| 20260506145631 | 15 | 225 | 0.0 | 0.0 | 0.00 | 0.00 | 0.00 | 34 | 1005.6 |
| 20260506145131 | 15 | 292 | 0.0 | 0.0 | 0.00 | 0.00 | 0.00 | 34 | 1005.7 |
| 20260506144631 | 16 | 157 | 0.0 | 0.0 | 0.00 | 0.00 | 0.00 | 33 | 1005.8 |
| 20260506144131 | 16 | 337 | 0.0 | 0.0 | 0.00 | 0.00 | 0.00 | 34 | 1005.6 |
| 20260506143631 | 16 | 315 | 0.0 | 0.0 | 0.00 | 0.00 | 0.00 | 36 | 1005.8 |
| 20260506143131 | 13 | 22 | 0.0 | 0.0 | 0.00 | 0.00 | 0.00 | 38 | 1005.7 |
| 20260506142631 | 13 | 315 | 0.0 | 0.0 | 0.00 | 0.00 | 0.00 | 37 | 1005.7 |
| 20260506142131 | 13 | 67 | 0.0 | 0.0 | 0.00 | 0.00 | 0.00 | 37 | 1005.7 |
| 20260506141631 | 13 | 337 | 0.0 | 0.0 | 0.00 | 0.00 | 0.00 | 38 | 1005.6 |
| 20260506141131 | 13 | 225 | 0.0 | 3.2 | 0.00 | 0.00 | 0.00 | 37 | 1005.6 |
| 20260506140631 | 13 | 315 | 0.0 | 4.8 | 0.00 | 0.00 | 0.00 | 37 | 1005.6 |
| 20260506140131 | 13 | 337 | 0.0 | 0.0 | 0.00 | 0.00 | 0.00 | 39 | 1005.6 |
| 20260506135631 | 12 | 0 | 0.0 | 0.0 | 0.00 | 0.00 | 0.00 | 41 | 1005.6 |
| 20260506135131 | 11 | 225 | 0.0 | 1.6 | 0.00 | 0.00 | 0.00 | 42 | 1005.6 |
| 20260506134631 | 11 | 202 | 0.0 | 0.0 | 0.00 | 0.00 | 0.00 | 43 | 1005.6 |
| 20260506134131 | 11 | 180 | 0.0 | 0.0 | 0.00 | 0.00 | 0.00 | 42 | 1005.7 |
| 20260506133631 | 11 | 45 | 0.0 | 6.4 | 0.00 | 0.00 | 0.00 | 42 | 1005.7 |
| 20260506133131 | 11 | 315 | 0.0 | 4.8 | 0.00 | 0.00 | 0.00 | 42 | 1005.7 |
| 20260506132631 | 11 | 292 | 0.0 | 0.0 | 0.00 | 0.00 | 0.00 | 42 | 1005.7 |
| 20260506132131 | 11 | 292 | 0.0 | 0.0 | 0.00 | 0.00 | 0.00 | 42 | 1005.6 |
| 20260506131631 | 11 | 90 | 0.0 | 0.0 | 0.00 | 0.00 | 0.00 | 41 | 1005.6 |
| 20260506131131 | 11 | 202 | 0.0 | 3.2 | 0.00 | 0.00 | 0.00 | 41 | 1005.6 |
| 20260506130631 | 11 | 315 | 0.0 | 0.0 | 0.00 | 0.00 | 0.00 | 41 | 1005.5 |
| 20260506130131 | 11 | 270 | 0.0 | 0.0 | 0.00 | 0.00 | 0.00 | 40 | 1005.4 |
| 20260506125631 | 12 | 315 | 0.0 | 0.0 | 0.00 | 0.00 | 0.00 | 40 | 1005.4 |
| 20260506125131 | 12 | 0 | 0.0 | 0.0 | 0.00 | 0.00 | 0.00 | 39 | 1005.5 |
| 20260506124631 | 12 | 292 | 0.0 | 0.0 | 0.00 | 0.00 | 0.00 | 38 | 1005.6 |
| 20260506124131 | 13 | 270 | 0.0 | 0.0 | 0.00 | 0.00 | 0.00 | 36 | 1005.6 |
| 20260506123631 | 14 | 315 | 0.0 | 0.0 | 0.00 | 0.00 | 0.00 | 35 | 1005.4 |
| 20260506123131 | 16 | 45 | 0.0 | 0.0 | 0.00 | 0.00 | 0.00 | 33 | 1005.5 |
| 20260506122631 | 17 | 0 | 0.0 | 3.2 | 0.00 | 0.00 | 0.00 | 31 | 1005.6 |
| 20260506122131 | 18 | 337 | 0.0 | 0.0 | 0.00 | 0.00 | 0.00 | 31 | 1005.6 |
| 20260506121631 | 18 | 270 | 0.0 | 0.0 | 0.00 | 0.00 | 0.00 | 31 | 1005.6 |
| 20260506121131 | 19 | 112 | 0.0 | 0.0 | 0.00 | 0.00 | 0.00 | 31 | 1005.6 |
| 20260506120631 | 18 | 337 | 0.0 | 9.7 | 0.00 | 0.00 | 0.00 | 32 | 1005.6 |
| 20260506120131 | 17 | 315 | 0.0 | 6.4 | 0.00 | 0.00 | 0.00 | 34 | 1005.6 |
| 20260506115631 | 15 | 315 | 0.0 | 0.0 | 0.00 | 0.00 | 0.00 | 38 | 1005.5 |
| 20260506115131 | 12 | 247 | 0.0 | 8.0 | 0.00 | 0.00 | 0.00 | 39 | 1005.6 |
| 20260506114631 | 11 | 270 | 0.0 | 0.0 | 0.00 | 0.00 | 0.00 | 38 | 1005.5 |
| 20260506114131 | 11 | 135 | 0.0 | 0.0 | 0.00 | 0.00 | 0.00 | 36 | 1005.5 |
| 20260506113631 | 12 | 180 | 0.0 | 0.0 | 0.00 | 0.00 | 0.00 | 35 | 1005.6 |
| 20260506113131 | 12 | 270 | 0.0 | 0.0 | 0.00 | 0.00 | 0.00 | 33 | 1005.5 |
| 20260506112631 | 13 | 315 | 0.0 | 0.0 | 0.00 | 0.00 | 0.00 | 32 | 1005.4 |
| 20260506112131 | 13 | 315 | 0.0 | 0.0 | 0.00 | 0.00 | 0.00 | 30 | 1005.4 |
| 20260506111631 | 15 | 315 | 0.0 | 0.0 | 0.00 | 0.00 | 0.00 | 26 | 1005.5 |
| 20260506111131 | 17 | 225 | 0.0 | 6.4 | 0.00 | 0.00 | 0.00 | 22 | 1005.5 |
| 20260506110631 | 21 | 270 | 0.0 | 0.0 | 0.00 | 0.00 | 0.00 | 21 | 1005.3 |
| 20260506110131 | 21 | 270 | 0.0 | 0.0 | 0.00 | 0.00 | 0.00 | 21 | 1005.5 |
| 20260506105632 | 20 | 292 | 0.0 | 0.0 | 0.00 | 0.00 | 0.00 | 22 | 1005.2 |
| 20260506105132 | 20 | 315 | 0.0 | 0.0 | 0.00 | 0.00 | 0.00 | 22 | 1005.4 |
| 20260506104632 | 18 | 315 | 0.0 | 0.0 | 0.00 | 0.00 | 0.00 | 24 | 1005.5 |
| 20260506104132 | 17 | 270 | 0.0 | 9.7 | 0.00 | 0.00 | 0.00 | 24 | 1005.4 |
| 20260506103632 | 20 | 270 | 0.0 | 1.6 | 0.00 | 0.00 | 0.00 | 23 | 1005.1 |
| 20260506103132 | 20 | 315 | 0.0 | 0.0 | 0.00 | 0.00 | 0.00 | 24 | 1005.1 |
| 20260506102632 | 19 | 315 | 0.0 | 0.0 | 0.00 | 0.00 | 0.00 | 24 | 1005.1 |
| 20260506102132 | 18 | 247 | 0.0 | 9.7 | 0.00 | 0.00 | 0.00 | 24 | 1005.2 |
| 20260506101632 | 18 | 337 | 0.0 | 0.0 | 0.00 | 0.00 | 0.00 | 25 | 1005.1 |
| 20260506101132 | 17 | 315 | 0.0 | 6.4 | 0.00 | 0.00 | 0.00 | 26 | 1005.1 |
| 20260506100632 | 17 | 270 | 3.2 | 3.2 | 0.00 | 0.00 | 0.00 | 26 | 1005.1 |
| 20260506100132 | 16 | 315 | 0.0 | 9.7 | 0.00 | 0.00 | 0.00 | 27 | 1005.2 |
| 20260506095632 | 15 | 270 | 0.0 | 3.2 | 0.00 | 0.00 | 0.00 | 28 | 1005.2 |
| 20260506095132 | 14 | 270 | 0.0 | 0.0 | 0.00 | 0.00 | 0.00 | 30 | 1005.3 |
| 20260506094632 | 13 | 292 | 0.0 | 0.0 | 0.00 | 0.00 | 0.00 | 29 | 1005.3 |
| 20260506094132 | 15 | 270 | 0.0 | 0.0 | 0.00 | 0.00 | 0.00 | 29 | 1005.2 |
| 20260506093632 | 15 | 270 | 0.0 | 0.0 | 0.00 | 0.00 | 0.00 | 29 | 1005.0 |
| 20260506093132 | 15 | 270 | 0.0 | 6.4 | 0.00 | 0.00 | 0.00 | 30 | 1004.9 |
| 20260506092632 | 13 | 247 | 0.0 | 0.0 | 0.00 | 0.00 | 0.00 | 32 | 1004.9 |
| 20260506092132 | 12 | 315 | 0.0 | 0.0 | 0.00 | 0.00 | 0.00 | 32 | 1004.9 |
| 20260506091632 | 13 | 270 | 0.0 | 0.0 | 0.00 | 0.00 | 0.00 | 32 | 1004.9 |
| 20260506091132 | 12 | 270 | 0.0 | 6.4 | 0.00 | 0.00 | 0.00 | 32 | 1004.8 |
| 20260506090632 | 12 | 225 | 0.0 | 0.0 | 0.00 | 0.00 | 0.00 | 33 | 1004.8 |
| 20260506090132 | 12 | 292 | 0.0 | 0.0 | 0.00 | 0.00 | 0.00 | 32 | 1004.9 |
| 20260506085632 | 12 | 270 | 0.0 | 0.0 | 0.00 | 0.00 | 0.00 | 32 | 1004.8 |
| 20260506085132 | 12 | 292 | 0.0 | 0.0 | 0.00 | 0.00 | 0.00 | 33 | 1004.8 |
| 20260506084632 | 12 | 270 | 0.0 | 0.0 | 0.00 | 0.00 | 0.00 | 33 | 1004.9 |
| 20260506084132 | 12 | 315 | 0.0 | 0.0 | 0.00 | 0.00 | 0.00 | 33 | 1004.8 |
| 20260506083632 | 13 | 292 | 0.0 | 3.2 | 0.00 | 0.00 | 0.00 | 32 | 1004.9 |
| 20260506083132 | 14 | 292 | 0.0 | 0.0 | 0.00 | 0.00 | 0.00 | 33 | 1004.8 |
| 20260506082632 | 13 | 292 | 0.0 | 6.4 | 0.00 | 0.00 | 0.00 | 33 | 1004.8 |
| 20260506082132 | 12 | 247 | 0.0 | 6.4 | 0.00 | 0.00 | 0.00 | 33 | 1004.8 |
| 20260506081632 | 12 | 270 | 0.0 | 0.0 | 0.00 | 0.00 | 0.00 | 34 | 1004.8 |
| 20260506081132 | 13 | 270 | 0.0 | 0.0 | 0.00 | 0.00 | 0.00 | 33 | 1004.8 |
| 20260506080632 | 14 | 247 | 0.0 | 0.0 | 0.00 | 0.00 | 0.00 | 33 | 1004.7 |
| 20260506080132 | 14 | 202 | 0.0 | 4.8 | 0.00 | 0.00 | 0.00 | 33 | 1004.8 |
| 20260506073132 | 14 | 337 | 0.0 | 0.0 | 0.00 | 0.00 | 0.00 | 34 | 1004.6 |
| 20260506072632 | 14 | 292 | 0.0 | 1.6 | 0.00 | 0.00 | 0.00 | 36 | 1004.4 |
| 20260506072132 | 14 | 315 | 1.6 | 1.6 | 0.00 | 0.00 | 0.00 | 35 | 1004.4 |
| 20260506071632 | 14 | 292 | 0.0 | 8.0 | 0.00 | 0.00 | 0.00 | 35 | 1004.4 |
| 20260506071132 | 15 | 292 | 0.0 | 4.8 | 0.00 | 0.00 | 0.00 | 36 | 1004.5 |
| 20260506070632 | 15 | 247 | 4.8 | 4.8 | 0.00 | 0.00 | 0.00 | 35 | 1004.3 |
| 20260506070132 | 15 | 292 | 0.0 | 4.8 | 0.00 | 0.00 | 0.00 | 35 | 1004.4 |
| 20260506062132 | 15 | 292 | 0.0 | 0.0 | 0.00 | 0.00 | 0.00 | 40 | 1004.2 |
| 20260506061632 | 15 | 337 | 0.0 | 6.4 | 0.00 | 0.00 | 0.00 | 42 | 1004.2 |
| 20260506061132 | 15 | 315 | 0.0 | 4.8 | 0.00 | 0.00 | 0.00 | 43 | 1004.2 |
| 20260506060632 | 15 | 270 | 0.0 | 0.0 | 0.00 | 0.00 | 0.00 | 44 | 1004.1 |
| 20260506060132 | 15 | 292 | 0.0 | 0.0 | 0.00 | 0.00 | 0.00 | 46 | 1004.0 |